Location: Dennis Manor
(64.8292°N, 147.5397°W)
Time: 07:52:29
(UTC+00:00)

Envisat - Pass Details

Date: 01 November 2020
Orbit: 764 x 766 km, 98.1° (Epoch: 05 December)

Event Time Altitude Azimuth Distance (km) Brightness Sun altitude
Rises 03:33:16 0° 192° (SSW) 3,230 6.5 -13.1°
Reaches altitude 10° 03:35:47 10° 202° (SSW) 2,308 5.9 -13.4°
Maximum altitude 03:40:23 34° 267° (W) 1,256 4.9 -13.9°
Drops below altitude 10° 03:45:02 10° 332° (NNW) 2,320 5.8 -14.3°
Sets 03:47:34 0° 342° (NNW) 3,251 6.4 -14.6°
